User: anonymous   Login
Location: Invercargill
(46.4000°S, 168.3500°E)
Time: 06:34:02
(UTC+12:00)
Language:

deb Explorer IX - Orbit

View from above orbital plane
View from above orbital plane
View from above satellite
View from above satellite

Ground track
Ground track

The orbit data is extracted from the following two-line orbital elements,

1    85U 61004C   19196.68983374 +.00001111 +00000-0 +25404-3 0  9990
2    85 038.7744 302.6396 0398283 050.1306 313.3771 14.19910910883060
Epoch (UTC): 15 July 2019 16:33:21
Eccentricity: 0.0398283
inclination: 38.7744°
perigee height: 539 km
apogee height: 1112 km
right ascension of ascending node: 302.6396°
argument of perigee: 50.1306°
revolutions per day: 14.19910910
mean anomaly at epoch: 313.3771°
orbit number at epoch: 88306

The dashed part of the orbit path shows where the satellite is in the earth's shadow,  

DLR